This is the latest recevied weather packets stored in our database for station/object SQ5JP-4. If no packets are shown the sender has not sent any weather packets the latest 10 day(s).
| Time | Temp. | Humidity | Pressure | Rain* | Wind** | Luminosity | Snow |
|---|---|---|---|---|---|---|---|
| 1777642188 | 22.22° C | 44% | 1006 hPa | - | - | - | - |
| 1777641288 | 21.11° C | 44% | 1006.1 hPa | - | - | - | - |
| 1777640388 | 21.67° C | 44% | 1006.2 hPa | - | - | - | - |
| 1777639488 | 20.56° C | 47% | 1006.3 hPa | - | - | - | - |
| 1777638588 | 21.11° C | 47% | 1006.5 hPa | - | - | - | - |
| 1777637688 | 20.56° C | 46% | 1006.6 hPa | - | - | - | - |
| 1777636787 | 20° C | 46% | 1006.8 hPa | - | - | - | - |
| 1777635887 | 19.44° C | 47% | 1007 hPa | - | - | - | - |
| 1777634988 | 19.44° C | 48% | 1007 hPa | - | - | - | - |
| 1777634087 | 19.44° C | 47% | 1007 hPa | - | - | - | - |
| 1777633187 | 18.89° C | 49% | 1007.1 hPa | - | - | - | - |
| 1777632287 | 18.33° C | 49% | 1007.2 hPa | - | - | - | - |
| 1777631387 | 18.89° C | 48% | 1007.3 hPa | - | - | - | - |
| 1777630487 | 18.89° C | 49% | 1007.4 hPa | - | - | - | - |
| 1777629587 | 17.78° C | 49% | 1007.5 hPa | - | - | - | - |
| 1777628687 | 17.22° C | 51% | 1007.6 hPa | - | - | - | - |
| 1777627786 | 17.22° C | 51% | 1007.7 hPa | - | - | - | - |
| 1777626886 | 16.67° C | 51% | 1007.7 hPa | - | - | - | - |
| 1777625986 | 16.67° C | 53% | 1007.8 hPa | - | - | - | - |
| 1777625086 | 15.56° C | 53% | 1007.9 hPa | - | - | - | - |
| 1777624185 | 15° C | 57% | 1007.9 hPa | - | - | - | - |
| 1777622388 | 14.44° C | 58% | 1008.1 hPa | - | - | - | - |
| 1777621488 | 13.33° C | 58% | 1007.8 hPa | - | - | - | - |
| 1777620588 | 14.44° C | 59% | 1007.8 hPa | - | - | - | - |
| 1777619688 | 13.89° C | 58% | 1007.7 hPa | - | - | - | - |
* Rain since midnight (hover to see other rain measurements)
** Current wind speed in m/s (hover to see current wind gust speed)